Wetbulb
42.70 42.62 39.73 38.80 39.76 39.45 38.52 37.87 37.33 40.09 40.54 39.47 41.04 40.87 43.74 46.75 46.39 45.72 46.54 47.08 47.49 47.79 49.51 49.43 49.59 50.13 49.70 49.37 48.87 48.06 48.18 49.03 49.26 49.55 49.30 49.85 49.84 51.16 52.34 53.30 53.42 54.55 55.12 55.36
42.83 38.82 39.31 40.02 40.30 39.34 38.44 37.14 38.15 40.35 39.87 39.91 40.89 39.62 44.03 45.11 45.06 45.87 46.41 46.94 47.27 47.70 48.22 48.88 49.25 49.17 49.25 48.83 48.75 47.13 47.54 48.33 48.50 49.18 49.45 49.74 49.85 50.73 50.82 52.52 53.33 55.31 55.75 56.02
40.63 38.55 39.81 39.65 39.14 38.14 37.81 36.64 36.49 35.72 39.74 40.30 38.10 41.82 42.21 43.39 44.40 45.48 46.59 47.40 47.39 47.55 48.13 48.76 48.62 49.31 49.64 49.00 48.94 46.16 46.58 47.62 48.04 48.92 49.46 49.55 50.61 51.17 51.40 52.05 53.55 54.74 55.93 56.28
39.37 39.44 38.70 39.04 37.82 38.74 35.69 38.25 37.56 37.47 36.64 34.88 38.12 36.63 42.53 43.02 43.32 44.10 46.64 47.40 47.51 47.97 48.25 48.42 48.62 49.51 49.57 49.30 49.47 46.76 45.84 46.70 47.24 48.68 48.52 47.85 46.67 47.54 49.90 50.58 52.19 54.47 56.36 56.94
36.61 37.49 37.63 37.23 37.85 39.48 37.17 39.43 37.91 37.05 35.87 33.91 35.57 34.97 42.64 40.38 41.79 44.12 46.54 46.89 47.39 47.95 47.56 48.02 48.91 49.09 49.59 49.36 49.92 47.51 45.70 45.98 46.53 48.01 49.01 48.33 47.90 49.29 50.94 51.31 51.49 53.67 55.93 54.89
39.11 41.77 40.54 39.31 40.24 40.16 39.99 37.67 35.67 36.32 35.46 33.12 32.33 33.97 40.92 42.20 41.54 43.54 45.72 46.43 46.81 47.68 48.32 48.77 49.28 48.90 49.11 50.20 49.03 47.63 45.31 45.13 45.70 47.50 49.05 48.78 48.16 48.56 48.98 49.74 49.34 51.86 52.50 51.78
37.31 39.01 40.91 41.13 38.35 40.37 38.97 36.22 34.42 34.41 33.63 34.42 31.35 31.66 39.76 42.29 42.62 43.53 44.62 46.13 47.48 48.32 48.97 49.40 49.29 49.54 49.66 49.54 49.65 47.32 45.09 44.30 44.85 46.44 48.28 48.81 48.84 48.77 48.54 48.85 48.36 49.00 49.29 47.98
35.05 35.90 38.50 40.60 38.77 37.30 36.74 34.32 32.44 26.92 29.41 32.13 31.22 31.19 41.99 42.01 42.53 43.58 44.29 45.50 46.73 47.97 48.79 48.78 49.19 49.42 49.73 49.44 49.39 47.67 45.06 43.91 44.42 44.66 47.43 48.53 48.82 49.26 49.40 48.53 48.69 48.32 47.61 46.06
34.21 32.50 39.02 39.97 41.19 40.02 36.14 35.22 35.99 30.59 29.63 28.69 34.26 36.28 40.42 40.46 41.10 42.77 43.98 45.34 47.03 47.33 47.80 48.07 48.88 49.26 49.40 49.62 49.47 48.21 45.60 44.08 43.89 44.02 45.89 47.04 47.84 47.90 48.14 48.24 48.48 48.58 47.33 45.46
35.87 31.22 35.79 38.96 41.37 40.52 38.36 38.91 32.48 32.96 27.39 27.36 33.60 31.40 38.31 37.63 40.16 42.89 44.21 44.95 46.36 47.56 47.86 48.40 48.99 49.05 48.89 48.91 49.15 48.42 45.66 44.08 44.00 43.99 44.25 45.60 46.13 46.43 47.15 46.94 46.66 46.16 46.66 45.32
37.90 34.39 32.85 37.37 36.64 36.46 36.44 35.75 34.66 33.43 32.24 29.61 28.63 37.35 40.88 36.90 38.81 41.64 44.60 45.59 45.32 45.20 45.46 46.18 46.90 47.38 47.05 47.48 47.67 47.19 45.44 43.97 43.24 43.36 43.60 43.99 45.07 44.77 44.29 44.19 44.04 43.90 44.15 43.95
38.55 35.94 31.84 33.30 36.52 38.32 38.13 36.42 36.68 32.56 29.11 31.45 30.29 32.41 39.63 40.05 40.38 41.23 42.44 43.28 44.32 44.74 44.58 44.85 45.56 45.93 46.11 46.53 46.98 46.22 45.74 44.19 43.70 43.27 42.72 42.95 43.57 43.26 42.96 42.73 42.21 42.06 41.90 42.53
38.88 33.91 30.37 29.84 33.29 35.97 34.88 36.75 36.98 33.97 33.56 30.35 29.73 34.96 38.61 41.34 41.14 42.86 42.57 43.88 44.49 44.42 44.52 44.87 45.55 45.91 46.33 46.63 46.52 45.90 45.60 44.66 43.92 42.42 41.34 42.18 41.76 41.79 41.92 42.00 41.74 40.90 40.37 40.48
41.08 34.57 32.27 31.45 30.70 34.66 32.07 34.34 36.05 35.43 31.67 32.28 32.33 35.71 39.72 41.22 40.61 42.03 43.27 44.06 44.02 43.71 44.06 44.71 44.89 45.43 46.14 46.72 45.99 45.26 44.93 44.80 43.68 41.59 40.71 40.64 41.04 40.94 40.92 40.81 40.00 39.54 39.39 39.05
38.98 32.85 32.88 33.57 34.45 34.03 32.51 32.75 33.94 32.12 34.19 30.20 34.80 34.09 38.19 40.26 41.27 42.11 42.63 42.87 42.51 42.21 42.62 43.61 44.31 45.35 45.64 45.30 46.15 45.93 44.32 43.91 42.86 40.88 39.84 39.65 40.34 40.51 39.57 39.00 38.45 38.54 38.47 38.40
37.55 33.02 31.79 29.59 33.84 32.31 29.94 33.21 33.38 33.13 33.55 33.97 34.64 34.10 40.74 42.16 41.62 40.84 41.91 42.19 41.79 42.03 42.49 43.94 44.74 45.37 45.65 46.23 44.84 45.20 44.49 43.72 42.44 40.60 39.59 39.94 39.71 38.57 37.98 38.08 37.81 37.70 37.63 37.65
36.22 34.42 31.10 28.44 30.41 30.90 29.12 32.92 33.32 33.07 33.90 34.14 30.55 36.40 39.88 38.91 39.22 40.66 41.36 41.96 41.82 42.33 43.08 44.09 44.94 45.85 46.23 46.00 44.94 43.45 44.62 43.94 41.93 40.38 40.75 39.35 38.55 37.54 37.14 37.36 37.11 36.62 36.86 37.38
34.50 33.87 32.91 28.64 30.85 25.86 33.21 35.34 35.56 34.31 35.41 36.13 35.79 36.80 38.53 38.90 39.97 41.06 42.29 42.53 41.89 43.97 44.37 45.29 45.84 45.89 46.13 46.44 45.23 44.72 44.15 43.09 40.26 39.45 38.98 38.76 37.75 37.01 37.04 36.33 36.20 36.66 37.08 36.29
36.57 35.20 30.68 27.35 25.98 32.18 33.20 32.57 32.84 32.38 32.76 35.90 36.06 38.39 39.46 40.05 39.50 39.76 44.12 45.11 44.25 44.44 44.82 44.75 45.22 45.71 46.00 45.90 45.51 44.34 43.62 43.12 40.74 39.94 39.90 38.72 38.49 36.07 36.43 35.74 35.96 36.21 36.12 36.02
33.94 35.20 32.09 27.56 24.03 25.45 32.01 34.67 37.07 36.20 30.99 36.34 37.62 37.98 37.99 38.14 35.34 39.18 43.71 43.78 43.90 44.71 45.21 45.01 45.19 45.65 45.31 45.63 45.46 43.83 42.69 42.76 41.25 41.38 40.24 39.53 38.71 37.34 36.82 36.83 36.31 36.85 35.67 35.40
29.50 30.49 28.14 28.51 26.38 30.22 37.03 37.78 37.61 30.14 32.36 38.25 38.79 39.14 38.57 36.89 39.52 42.20 43.78 43.39 43.93 44.17 44.05 45.09 45.03 44.56 44.95 45.40 44.49 41.95 42.27 41.86 42.82 42.59 40.59 39.94 38.34 37.17 37.78 37.15 36.49 35.90 34.55 34.79
30.33 28.75 27.77 29.03 26.11 24.00 38.65 35.97 34.17 37.25 40.24 40.24 40.19 40.46 40.02 40.75 41.17 41.56 42.05 42.02 42.60 42.46 42.98 43.37 43.19 43.67 44.62 44.41 43.56 41.63 41.55 43.86 43.43 41.81 39.73 38.59 37.91 37.35 36.65 37.18 36.04 35.04 34.78 33.41
30.21 35.08 33.17 33.31 33.48 39.43 39.28 39.39 41.86 41.46 38.98 40.78 40.98 41.67 41.50 40.19 40.47 40.98 40.61 40.81 41.12 41.41 41.75 42.79 42.31 42.44 43.47 43.89 43.55 41.91 42.19 42.86 42.66 41.02 39.54 38.83 37.94 37.23 36.57 36.27 35.89 34.46 33.94 32.90
35.55 37.89 33.41 32.63 38.24 39.01 40.92 42.72 43.10 41.90 42.13 42.28 42.44 42.14 41.67 39.89 40.10 39.67 40.07 39.87 40.10 40.72 40.63 41.43 41.06 40.73 40.90 42.51 42.42 42.44 42.62 42.54 41.35 39.55 39.65 38.48 37.31 36.73 36.36 35.66 35.71 34.41 33.11 32.29
39.09 36.13 35.00 35.75 39.01 40.34 42.11 42.27 43.05 42.91 42.70 42.31 42.56 41.58 40.28 39.47 38.90 38.96 38.54 38.94 39.37 39.55 40.03 40.50 39.87 39.66 39.66 40.74 40.66 41.29 41.28 41.08 39.61 38.92 38.14 37.73 36.35 36.40 35.96 35.02 35.00 33.97 34.83 34.27
39.27 36.79 34.33 34.20 40.50 40.32 40.47 43.07 43.06 40.97 40.84 41.29 40.03 39.20 40.11 39.70 38.33 38.54 38.33 39.20 39.04 38.95 39.51 38.68 38.65 38.41 38.75 39.05 39.27 39.91 40.45 40.02 38.74 37.91 38.44 38.15 36.52 35.43 35.62 34.38 33.53 36.09 36.30 35.42
MSLP
1020.34 1020.76 1021.08 1021.56 1021.17 1020.82 1020.54 1020.14 1019.95 1019.81 1020.65 1020.22 1018.31 1016.88 1015.07 1014.90 1014.81 1014.67 1014.65 1014.88 1015.32 1015.77 1016.42 1017.20 1017.68 1017.97 1018.24 1018.36 1018.41 1018.36 1018.34 1018.12 1017.80 1017.31 1016.81 1016.32 1015.84 1015.35 1014.84 1014.37 1014.12 1013.24 1012.61 1012.06
1020.82 1021.54 1022.42 1022.50 1022.06 1021.53 1021.24 1020.88 1020.46 1020.45 1020.96 1020.67 1018.29 1016.00 1014.52 1014.29 1014.30 1014.37 1014.41 1014.60 1015.11 1015.65 1016.31 1016.87 1017.25 1017.71 1018.08 1018.15 1018.20 1018.26 1018.21 1017.95 1017.73 1017.56 1017.38 1017.07 1016.52 1015.85 1015.22 1014.35 1013.64 1012.81 1012.30 1011.73
1021.19 1022.76 1023.00 1022.77 1022.41 1021.93 1021.77 1021.69 1021.84 1022.17 1021.32 1020.57 1019.20 1015.39 1013.95 1014.02 1014.19 1014.31 1014.46 1014.72 1015.06 1015.47 1015.87 1016.41 1016.96 1017.29 1017.60 1017.82 1018.04 1018.15 1018.12 1017.92 1017.68 1017.65 1017.46 1017.09 1016.39 1015.59 1014.63 1014.26 1013.33 1012.69 1011.91 1011.45
1022.57 1023.37 1023.22 1023.03 1022.82 1022.74 1022.43 1022.86 1022.89 1022.62 1021.94 1020.60 1019.91 1016.21 1013.60 1013.45 1013.54 1013.84 1013.82 1014.17 1014.65 1015.23 1015.86 1016.33 1016.75 1016.92 1017.16 1017.51 1017.86 1017.92 1017.80 1017.65 1017.45 1017.47 1017.26 1016.84 1016.33 1015.57 1014.98 1014.50 1013.86 1012.84 1011.78 1011.34
1023.24 1023.29 1023.36 1023.20 1023.32 1023.32 1023.19 1023.38 1023.21 1022.89 1022.28 1021.68 1019.76 1018.43 1013.78 1013.76 1013.19 1013.20 1013.40 1014.03 1014.72 1015.27 1015.75 1016.03 1016.35 1016.67 1016.90 1017.03 1017.17 1017.30 1017.37 1017.32 1017.32 1017.24 1016.99 1016.65 1016.16 1015.66 1015.08 1014.27 1013.89 1012.94 1012.08 1011.94
1023.15 1023.66 1023.67 1023.53 1023.65 1023.58 1023.64 1023.43 1023.14 1022.76 1022.18 1021.32 1020.07 1018.99 1014.42 1013.65 1013.60 1013.30 1013.67 1014.21 1014.81 1015.24 1015.58 1015.80 1016.10 1016.35 1016.31 1016.53 1016.87 1017.06 1017.10 1017.10 1017.15 1017.09 1016.79 1016.48 1016.11 1015.60 1015.05 1014.45 1013.96 1013.19 1012.90 1012.66
1023.14 1023.45 1023.75 1023.86 1023.49 1023.64 1023.51 1023.31 1022.70 1022.24 1021.55 1020.63 1020.33 1019.20 1014.91 1014.14 1014.02 1014.07 1014.14 1014.44 1014.88 1015.22 1015.37 1015.49 1015.59 1015.65 1015.71 1015.89 1016.22 1016.55 1016.67 1016.65 1016.81 1016.80 1016.59 1016.23 1015.94 1015.62 1015.18 1014.84 1014.40 1013.80 1013.43 1013.34
1022.76 1023.30 1023.52 1023.77 1023.62 1023.58 1023.62 1023.54 1022.92 1022.03 1021.04 1019.84 1019.77 1017.64 1014.48 1014.30 1014.47 1014.64 1014.86 1014.99 1015.06 1015.03 1015.19 1015.30 1015.35 1015.36 1015.33 1015.40 1015.63 1015.99 1016.15 1016.14 1016.35 1016.40 1016.28 1016.07 1015.72 1015.39 1015.05 1014.94 1014.57 1014.27 1013.98 1013.73
1022.79 1023.19 1023.67 1023.86 1023.93 1024.09 1023.76 1023.42 1023.46 1022.45 1021.67 1020.24 1017.72 1016.22 1014.39 1014.12 1014.18 1014.61 1014.84 1014.99 1014.89 1014.98 1015.01 1014.95 1014.86 1014.79 1014.67 1014.69 1014.92 1015.21 1015.47 1015.65 1015.83 1015.96 1015.85 1015.63 1015.40 1015.22 1014.88 1014.65 1014.41 1014.11 1014.05 1013.93
1023.34 1023.53 1023.73 1023.98 1024.04 1024.16 1023.79 1023.68 1023.28 1022.33 1020.85 1019.01 1016.91 1016.19 1015.11 1014.67 1014.77 1014.86 1014.92 1015.02 1014.93 1014.82 1014.62 1014.33 1014.13 1014.02 1013.94 1014.08 1014.30 1014.63 1014.92 1015.02 1015.10 1015.27 1015.33 1015.20 1015.03 1015.04 1014.92 1014.78 1014.59 1014.38 1013.98 1013.68
1023.59 1023.68 1023.86 1024.00 1023.56 1023.16 1023.82 1023.29 1023.02 1022.46 1021.22 1019.51 1017.69 1015.26 1014.76 1015.11 1015.34 1015.27 1015.17 1015.13 1014.87 1014.50 1014.18 1013.82 1013.48 1013.33 1013.23 1013.33 1013.57 1013.80 1014.06 1014.24 1014.35 1014.56 1014.59 1014.60 1014.55 1014.50 1014.46 1014.27 1014.22 1014.21 1014.17 1014.04
1023.75 1023.58 1023.15 1022.80 1023.48 1023.50 1023.20 1022.72 1022.34 1021.64 1021.21 1020.36 1019.12 1015.59 1014.75 1015.15 1015.47 1015.54 1015.25 1015.00 1014.74 1014.46 1014.08 1013.67 1013.34 1013.02 1012.80 1012.76 1012.91 1013.18 1013.46 1013.67 1013.82 1013.98 1014.15 1014.14 1014.10 1014.06 1013.91 1013.86 1013.93 1013.91 1013.70 1013.69
1023.75 1023.49 1022.87 1022.79 1023.49 1023.47 1023.04 1022.53 1022.29 1022.10 1021.49 1019.78 1018.38 1015.01 1014.86 1015.16 1015.28 1015.16 1015.06 1014.78 1014.46 1014.26 1013.89 1013.47 1013.01 1012.71 1012.50 1012.38 1012.42 1012.62 1012.85 1012.99 1013.18 1013.51 1013.70 1013.68 1013.62 1013.52 1013.37 1013.32 1013.51 1013.68 1013.66 1013.48
1023.90 1023.51 1022.86 1022.29 1022.25 1022.33 1022.41 1022.17 1022.13 1021.76 1021.05 1018.81 1016.82 1014.99 1014.45 1014.56 1015.09 1014.97 1014.67 1014.68 1014.47 1014.25 1013.99 1013.55 1013.09 1012.65 1012.28 1012.09 1011.97 1012.01 1012.09 1012.33 1012.67 1013.14 1013.20 1012.98 1012.85 1013.00 1013.05 1013.20 1013.41 1013.47 1013.53 1013.67
1024.16 1023.49 1023.17 1022.54 1022.14 1022.07 1021.69 1021.38 1021.37 1021.01 1019.97 1019.15 1015.96 1015.75 1015.08 1015.20 1015.27 1015.13 1015.14 1014.84 1014.48 1014.19 1013.84 1013.42 1012.96 1012.45 1012.09 1011.70 1011.32 1011.44 1011.69 1011.79 1012.14 1012.40 1012.53 1012.49 1012.62 1012.71 1013.00 1013.17 1013.33 1013.40 1013.53 1013.58
1024.50 1023.73 1023.58 1022.45 1021.58 1021.51 1020.63 1020.00 1020.10 1020.06 1019.58 1018.87 1017.61 1016.10 1015.86 1015.55 1015.74 1015.61 1015.20 1014.84 1014.50 1014.12 1013.73 1013.30 1012.79 1012.26 1011.66 1011.13 1010.93 1010.97 1011.06 1011.18 1011.71 1011.75 1011.73 1012.27 1012.58 1012.81 1012.88 1013.05 1013.23 1013.40 1013.44 1013.35
1024.28 1023.95 1023.57 1021.89 1021.60 1020.94 1019.18 1017.96 1018.17 1018.51 1018.58 1018.25 1017.97 1016.59 1016.31 1016.01 1016.00 1015.68 1015.24 1014.81 1014.32 1013.87 1013.43 1012.82 1012.25 1011.72 1011.20 1010.73 1010.43 1010.14 1010.30 1010.61 1010.74 1011.07 1011.15 1011.26 1011.61 1012.13 1012.57 1012.85 1012.99 1013.06 1013.13 1013.21
1024.17 1024.12 1023.85 1022.27 1021.12 1019.64 1017.93 1017.89 1017.89 1017.97 1017.95 1017.96 1017.50 1017.17 1016.95 1016.62 1016.29 1015.93 1015.32 1014.72 1014.27 1013.67 1013.19 1012.52 1012.00 1011.46 1010.83 1010.36 1010.11 1009.88 1009.57 1009.61 1009.83 1009.77 1010.07 1010.43 1010.83 1011.21 1011.67 1012.06 1012.17 1012.37 1012.67 1012.88
1024.40 1024.09 1023.48 1022.75 1021.50 1018.72 1017.53 1018.01 1018.16 1018.04 1017.83 1017.59 1017.57 1017.30 1017.05 1016.73 1016.44 1015.45 1015.00 1014.77 1014.24 1013.52 1012.75 1012.26 1011.85 1011.13 1010.46 1010.04 1009.72 1009.29 1009.09 1008.94 1008.95 1008.84 1008.74 1009.15 1009.56 1009.92 1010.37 1010.86 1011.23 1011.55 1011.79 1011.96
1024.56 1024.28 1023.76 1023.13 1021.77 1019.22 1017.43 1017.58 1017.69 1017.86 1017.35 1017.55 1017.54 1017.37 1017.12 1016.85 1015.58 1014.40 1014.58 1014.41 1013.53 1013.09 1012.53 1011.91 1011.45 1010.83 1010.13 1009.53 1009.30 1008.75 1008.39 1008.05 1008.13 1007.67 1007.81 1008.03 1008.20 1008.53 1008.93 1009.43 1009.95 1010.35 1010.78 1011.02
1024.01 1023.93 1023.05 1022.55 1021.47 1018.91 1017.21 1017.51 1017.74 1017.53 1017.53 1017.34 1017.47 1017.24 1016.97 1016.70 1016.33 1015.20 1014.72 1013.97 1013.63 1013.00 1012.17 1011.56 1011.05 1010.43 1009.87 1009.51 1009.14 1008.61 1007.97 1007.52 1007.16 1007.05 1007.05 1007.19 1007.53 1007.76 1007.68 1008.08 1008.81 1009.45 1010.02 1010.37
1021.75 1021.92 1021.87 1021.75 1020.85 1018.62 1016.99 1017.52 1017.40 1017.09 1016.73 1016.95 1016.96 1016.95 1016.62 1016.36 1015.78 1015.11 1014.38 1013.66 1013.14 1012.41 1011.85 1011.39 1010.69 1009.97 1009.42 1009.21 1008.77 1008.21 1007.56 1007.09 1006.85 1006.63 1006.43 1006.53 1006.80 1006.87 1007.08 1007.43 1007.98 1008.62 1009.13 1009.60
1020.51 1019.55 1019.46 1019.39 1017.65 1016.76 1016.96 1016.57 1016.62 1016.77 1016.91 1016.78 1016.77 1016.70 1016.36 1015.93 1015.38 1014.88 1014.32 1013.74 1013.16 1012.63 1012.04 1011.39 1010.79 1010.05 1009.31 1008.73 1008.26 1007.56 1006.90 1006.60 1006.21 1006.18 1006.01 1005.85 1005.97 1006.16 1006.55 1006.73 1006.98 1007.83 1008.29 1008.59
1019.04 1018.96 1018.71 1018.17 1016.43 1016.21 1016.01 1016.14 1016.25 1016.51 1016.45 1016.58 1016.63 1016.41 1016.30 1015.87 1015.38 1014.88 1014.33 1013.81 1013.25 1012.60 1011.96 1011.30 1010.58 1009.74 1008.96 1008.42 1007.97 1007.43 1006.87 1006.35 1005.85 1005.44 1005.00 1005.10 1005.42 1005.80 1006.02 1006.37 1006.67 1006.86 1007.11 1007.66
1018.35 1018.64 1017.69 1016.14 1015.96 1015.69 1015.60 1015.83 1015.92 1016.00 1016.27 1016.24 1016.14 1016.19 1016.01 1015.71 1015.29 1015.03 1014.51 1014.00 1013.49 1012.82 1011.96 1011.26 1010.61 1009.88 1009.05 1008.32 1007.49 1006.94 1006.57 1006.16 1005.62 1005.21 1004.85 1004.82 1004.91 1005.03 1005.28 1005.58 1005.77 1005.92 1006.03 1006.33
1018.37 1017.73 1016.87 1015.00 1015.31 1015.32 1015.29 1015.60 1015.97 1016.17 1016.17 1016.10 1016.01 1015.71 1015.51 1015.64 1015.42 1015.12 1014.54 1014.12 1013.65 1012.89 1012.00 1011.27 1010.61 1009.99 1009.16 1008.44 1007.60 1006.84 1006.29 1005.79 1005.19 1004.60 1004.21 1004.27 1004.56 1004.74 1004.90 1005.08 1005.33 1005.64 1005.84 1006.26
Wind_Speed
5 6 6 5 6 5 3 2 6 5 4 10 7 19 24 17 13 11 8 6 5 5 1 3 2 2 3 5 6 7 8 9 8 8 9 9 9 10 9 9 13 13 11 11
3 6 3 2 3 3 2 4 5 7 3 8 13 26 21 9 5 3 3 4 4 5 5 4 2 4 6 6 6 6 7 8 7 7 7 7 10 9 10 10 12 11 11 11
4 5 3 0 2 3 2 3 4 5 12 4 14 10 3 3 3 4 7 6 6 6 6 4 5 6 6 6 5 5 6 7 7 8 7 7 8 8 7 10 10 12 13 9
6 2 1 2 2 3 3 1 3 9 9 5 6 7 3 4 5 5 5 6 4 4 6 7 7 8 7 6 4 5 5 6 6 7 7 9 7 9 9 9 8 11 11 12
2 3 2 0 2 1 3 2 4 4 3 5 3 4 4 0 7 7 5 2 1 2 3 5 6 7 6 6 5 5 5 5 6 7 7 6 8 7 8 8 12 12 10 11
3 1 1 1 1 1 1 3 1 1 2 3 2 2 6 2 2 3 3 2 1 4 5 6 6 7 8 7 7 6 6 6 6 6 6 7 8 9 8 9 8 8 7 8
2 3 2 2 2 2 2 2 3 2 1 2 2 4 9 6 3 1 1 2 4 5 6 6 7 7 8 8 7 6 6 7 6 6 6 7 7 8 9 8 6 8 6 6
1 1 1 2 2 2 2 2 2 4 4 5 3 7 4 1 2 5 6 6 7 7 5 6 7 8 8 8 8 7 8 8 7 6 7 6 6 5 5 5 6 5 4 4
1 1 1 1 1 2 3 2 2 1 1 5 2 7 10 4 4 5 4 5 5 6 7 9 9 9 9 8 9 9 9 9 8 8 6 7 6 6 6 6 5 3 4 3
2 3 0 2 2 3 4 5 3 1 4 5 3 6 4 6 7 5 3 5 7 9 12 13 12 13 12 10 8 9 10 10 9 9 8 6 7 6 6 6 6 6 4 2
3 2 3 2 7 5 5 4 2 3 3 4 5 4 4 4 2 3 4 7 13 15 15 14 13 11 10 9 9 10 11 12 11 10 9 8 7 6 5 5 5 5 5 5
1 2 4 1 2 2 2 2 5 3 4 2 4 9 3 2 0 1 11 14 15 15 15 14 13 12 10 9 8 10 11 12 11 10 9 9 8 7 7 6 5 5 4 3
5 2 4 3 3 3 6 6 5 2 2 9 4 3 2 3 2 9 14 16 15 15 15 13 12 11 10 9 8 9 11 12 11 11 11 10 10 10 9 8 6 6 5 4
4 3 6 4 3 2 5 7 11 10 6 6 14 17 14 13 15 19 16 15 14 12 13 13 14 14 13 11 10 9 10 11 11 11 12 12 12 11 10 8 7 6 5 5
3 5 3 11 14 13 15 17 15 17 17 11 7 14 16 19 20 16 13 14 16 15 14 15 15 16 15 15 12 9 9 10 11 13 13 14 12 10 9 8 8 7 6 5
2 3 2 7 10 7 14 16 18 21 22 22 26 30 20 11 5 10 13 15 15 13 13 15 15 17 17 16 13 10 9 9 10 13 14 11 11 10 10 9 8 7 7 6
4 3 3 6 3 13 13 8 10 8 7 18 15 10 10 11 11 14 16 16 14 13 15 16 17 18 17 17 12 10 9 7 9 13 14 13 12 12 11 9 9 10 9 7
5 4 2 7 10 5 4 2 4 9 6 15 12 13 13 12 13 14 16 14 13 18 21 21 19 19 19 18 15 14 10 9 10 12 14 12 13 13 12 12 12 10 8 8
6 7 4 5 4 13 2 2 4 3 5 3 5 8 11 12 15 13 7 14 20 24 22 19 20 20 20 18 17 14 13 12 11 13 14 14 15 14 14 14 13 12 10 9
6 7 7 2 4 6 3 3 4 2 6 3 4 8 11 12 14 12 19 22 23 23 19 19 22 21 19 18 17 15 14 14 14 14 14 13 14 16 16 15 14 12 12 11
5 6 13 10 6 11 6 2 2 4 4 8 6 11 13 12 13 23 22 21 20 20 23 22 20 18 20 19 17 16 16 15 14 12 11 12 14 15 15 14 13 12 11 10
8 9 7 6 6 11 2 3 3 4 8 10 10 12 16 18 19 20 21 21 20 21 20 20 18 17 18 18 16 16 17 15 13 12 11 11 13 11 10 14 12 13 12 11
6 7 4 11 8 1 2 5 7 9 10 11 14 16 19 19 20 19 18 20 19 20 17 15 16 16 16 15 15 16 16 16 15 13 13 12 12 12 12 13 13 11 12 11
6 8 6 3 9 14 11 11 12 7 13 13 14 17 15 19 19 18 18 17 17 17 17 17 17 17 16 15 15 16 16 16 15 14 14 10 10 11 12 9 9 10 10 10
6 5 6 15 18 18 17 9 14 17 14 17 16 13 16 14 15 14 14 15 15 16 16 16 16 15 17 17 16 16 14 13 12 12 11 10 8 10 10 10 9 10 11 12
10 16 16 17 19 17 18 18 15 15 17 15 14 15 12 10 12 12 13 12 14 16 16 14 16 15 17 17 16 16 14 12 11 10 8 7 7 7 8 9 8 15 12 18
Wind_Direction
35 65 72 78 48 69 84 329 302 304 355 312 287 286 289 294 279 268 256 237 230 235 225 208 249 249 277 285 299 319 330 338 340 342 338 331 336 332 328 325 320 311 303 295
113 84 102 93 66 67 40 322 329 291 303 314 307 293 293 275 236 242 249 223 230 221 222 218 252 238 248 272 289 315 331 339 348 344 330 321 320 315 312 311 313 324 317 303
78 95 133 153 78 357 29 336 350 315 317 260 302 264 232 156 234 242 247 259 261 259 268 251 249 248 251 261 287 304 327 339 342 331 318 313 314 305 313 335 324 326 317 307
70 105 111 80 58 335 305 50 312 307 331 314 358 298 261 194 225 232 233 229 258 277 273 266 262 261 254 267 260 275 304 320 321 320 311 316 317 319 328 325 312 318 342 357
101 143 130 190 50 282 11 326 307 305 292 304 138 278 278 319 235 213 201 168 225 258 283 296 267 264 264 255 256 251 263 285 312 305 301 312 310 313 314 326 332 324 348 360
89 94 257 61 123 274 353 246 266 168 298 248 55 318 282 229 267 170 144 152 265 329 301 274 275 270 261 252 248 250 264 282 297 304 305 299 309 317 316 330 336 341 350 355
165 165 146 232 215 166 323 342 304 279 258 314 165 263 264 278 248 277 137 18 358 316 294 294 287 276 270 257 247 240 248 266 277 289 285 291 305 308 311 326 326 338 352 355
360 202 172 126 344 349 41 322 308 287 307 321 156 236 254 167 298 278 278 300 300 299 296 294 293 290 286 272 252 236 242 255 254 269 276 281 291 294 307 319 325 333 344 355
333 194 101 61 66 314 116 243 9 306 204 270 254 264 269 286 252 238 256 302 322 326 310 297 292 282 283 277 255 235 232 241 245 252 260 264 271 279 291 311 316 328 334 333
138 266 171 108 164 88 272 133 214 173 316 295 262 282 266 358 9 39 54 356 326 315 307 300 293 290 289 279 262 236 229 236 239 239 249 255 266 275 290 304 313 318 322 325
163 253 127 215 202 185 162 199 189 304 278 292 310 283 190 211 327 2 22 335 322 321 317 313 307 303 293 276 258 238 226 227 230 231 236 241 245 250 259 262 279 299 308 320
136 277 247 239 97 338 285 246 224 246 173 247 319 272 135 251 279 348 333 332 329 329 326 315 310 309 299 285 266 246 235 232 232 231 233 237 237 236 242 244 249 260 266 284
167 215 288 182 166 194 239 196 211 139 341 217 229 251 96 132 157 328 334 334 334 336 340 342 334 322 311 303 288 269 249 241 234 224 226 232 235 232 238 235 232 237 248 236
178 252 260 281 17 51 221 205 211 212 216 257 236 275 268 297 333 324 331 330 331 330 340 344 341 337 326 303 289 279 262 242 234 227 229 232 231 233 237 240 240 233 225 243
242 259 247 267 275 263 260 258 234 219 227 242 278 284 287 306 316 321 328 322 329 330 338 341 338 334 329 319 292 279 269 255 234 228 228 233 236 231 235 237 239 239 234 233
197 261 303 278 274 273 266 261 247 246 248 254 265 279 295 293 315 324 330 324 321 318 317 322 322 323 320 320 302 294 281 268 242 233 232 235 235 232 229 233 236 240 241 232
205 246 323 274 277 297 271 253 213 206 221 231 248 262 305 315 326 327 319 309 309 309 306 305 306 311 308 304 296 268 288 281 241 241 239 225 220 219 221 223 222 228 234 238
179 189 237 287 313 258 58 194 249 209 240 219 256 278 292 293 301 313 296 299 294 306 309 307 310 308 307 308 301 280 267 255 236 233 234 227 220 218 212 211 217 222 226 230
235 215 258 275 276 303 175 151 149 202 66 62 231 308 319 322 310 290 287 310 304 304 304 302 302 302 305 305 304 288 284 272 249 243 232 224 215 208 206 210 209 210 212 218
178 240 228 185 250 264 93 164 161 207 202 76 344 330 326 322 311 317 328 315 309 308 306 305 305 304 302 306 311 297 291 288 268 253 243 229 215 211 210 211 207 205 205 210
152 196 219 226 265 283 282 236 184 249 57 341 320 327 322 310 299 307 310 308 307 307 309 310 307 303 301 306 310 296 294 292 275 268 244 230 217 219 213 202 204 200 200 203
185 169 193 198 230 262 202 143 271 14 321 315 317 318 313 306 304 304 309 310 316 318 317 315 309 306 305 308 306 295 292 298 293 272 251 237 229 218 208 203 196 201 201 204
230 225 194 208 222 358 195 279 297 293 285 303 314 316 315 312 311 313 311 314 317 320 318 316 314 310 308 308 305 298 291 301 303 283 267 250 233 223 214 205 199 196 198 201
229 205 232 205 232 258 274 295 284 265 299 318 310 312 307 304 308 310 312 317 319 320 321 321 320 316 312 313 311 305 311 305 299 286 276 256 238 231 220 212 205 198 194 198
261 158 249 258 278 279 279 276 296 305 312 306 308 308 304 311 309 315 312 315 317 316 317 318 316 314 311 315 310 312 312 310 299 289 277 262 239 228 225 217 211 209 209 202
237 250 254 269 278 288 293 301 310 305 305 307 310 311 312 321 314 315 312 316 316 318 320 318 314 314 313 314 311 314 315 309 296 286 279 264 246 231 226 220 219 226 225 212